When you browse on this site, cookies collect data to enhance your experience and personalize the content and advertising you see.
Visit our Privacy Policy to learn more. By continuing to use the site, you agree to this use of cookies and data.

Meteo pe oră la Tafilah

Astăzi, 12 Iulie, Duminică

Timp Temperatura Precipitaţii Vânt Presiune Umiditate
00:00 +23°C° 0 mm 2 m/s 695 mmHg 72%
01:00 +21°C° 0 mm 2 m/s 694 mmHg 76%
02:00 +20°C° 0 mm 2 m/s 694 mmHg 83%
03:00 +20°C° 0 mm 2 m/s 694 mmHg 83%
04:00 +20°C° 0 mm 2 m/s 694 mmHg 82%
05:00 +21°C° 0 mm 1 m/s 694 mmHg 82%
06:00 +21°C° 0 mm 2 m/s 694 mmHg 71%
07:00 +24°C° 0 mm 2 m/s 695 mmHg 61%
08:00 +26°C° 0 mm 2 m/s 695 mmHg 50%
09:00 +28°C° 0 mm 3 m/s 695 mmHg 44%
10:00 +30°C° 0 mm 3 m/s 695 mmHg 38%
11:00 +31°C° 0 mm 3 m/s 695 mmHg 32%
12:00 +33°C° 0 mm 3 m/s 695 mmHg 29%
13:00 +35°C° 0 mm 3 m/s 695 mmHg 26%
14:00 +36°C° 0 mm 4 m/s 694 mmHg 23%
15:00 +35°C° 0 mm 5 m/s 694 mmHg 25%
16:00 +34°C° 0 mm 6 m/s 694 mmHg 27%
17:00 +34°C° 0 mm 7 m/s 694 mmHg 29%
18:00 +30°C° 0 mm 6 m/s 694 mmHg 35%
19:00 +28°C° 0 mm 4 m/s 694 mmHg 41%
20:00 +25°C° 0 mm 3 m/s 693 mmHg 47%
21:00 +24°C° 0 mm 3 m/s 693 mmHg 50%
22:00 +22°C° 0 mm 3 m/s 693 mmHg 52%
23:00 +22°C° 0 mm 3 m/s 693 mmHg 54%

Mâine, 13 Iulie, Luni

Timp Temperatura Precipitaţii Vânt Presiune Umiditate
00:00 +21°C° 0 mm 2 m/s 693 mmHg 55%
01:00 +21°C° 0 mm 2 m/s 692 mmHg 56%
02:00 +20°C° 0 mm 2 m/s 692 mmHg 56%
03:00 +20°C° 0 mm 2 m/s 692 mmHg 61%
04:00 +19°C° 0 mm 2 m/s 692 mmHg 65%
05:00 +19°C° 0 mm 2 m/s 692 mmHg 69%
06:00 +21°C° 0 mm 2 m/s 692 mmHg 63%
07:00 +24°C° 0 mm 2 m/s 693 mmHg 57%
08:00 +26°C° 0 mm 2 m/s 693 mmHg 50%
09:00 +28°C° 0 mm 2 m/s 693 mmHg 44%
10:00 +29°C° 0 mm 2 m/s 693 mmHg 38%
11:00 +31°C° 0 mm 3 m/s 693 mmHg 32%
12:00 +34°C° 0 mm 3 m/s 693 mmHg 29%
13:00 +35°C° 0 mm 3 m/s 692 mmHg 25%
14:00 +36°C° 0 mm 4 m/s 692 mmHg 22%
15:00 +36°C° 0 mm 5 m/s 692 mmHg 24%
16:00 +35°C° 0 mm 6 m/s 692 mmHg 26%
17:00 +35°C° 0 mm 7 m/s 692 mmHg 27%
18:00 +32°C° 0 mm 5 m/s 692 mmHg 37%
19:00 +28°C° 0 mm 4 m/s 692 mmHg 46%
20:00 +26°C° 0 mm 2 m/s 692 mmHg 55%
21:00 +25°C° 0 mm 2 m/s 692 mmHg 57%
22:00 +24°C° 0 mm 2 m/s 692 mmHg 59%
23:00 +24°C° 0 mm 2 m/s 692 mmHg 61%

Poimâine, 14 Iulie, Marţi

Timp Temperatura Precipitaţii Vânt Presiune Umiditate
00:00 +23°C° 0 mm 2 m/s 692 mmHg 61%
01:00 +23°C° 0 mm 2 m/s 692 mmHg 61%
02:00 +21°C° 0 mm 2 m/s 692 mmHg 60%
03:00 +22°C° 0 mm 1 m/s 692 mmHg 60%
04:00 +21°C° 0 mm 1 m/s 692 mmHg 60%
05:00 +21°C° 0 mm 1 m/s 692 mmHg 59%
06:00 +24°C° 0 mm 1 m/s 693 mmHg 52%
07:00 +26°C° 0 mm 1 m/s 694 mmHg 44%
08:00 +29°C° 0 mm 2 m/s 694 mmHg 36%
09:00 +31°C° 0 mm 2 m/s 694 mmHg 31%
10:00 +33°C° 0 mm 3 m/s 695 mmHg 27%
11:00 +35°C° 0 mm 3 m/s 695 mmHg 22%
12:00 +36°C° 0 mm 3 m/s 694 mmHg 19%
13:00 +37°C° 0 mm 4 m/s 694 mmHg 17%
14:00 +38°C° 0 mm 4 m/s 694 mmHg 14%
15:00 +39°C° 0 mm 5 m/s 694 mmHg 16%
16:00 +37°C° 0 mm 5 m/s 694 mmHg 17%
17:00 +37°C° 0 mm 5 m/s 694 mmHg 18%
18:00 +34°C° 0 mm 4 m/s 694 mmHg 26%
19:00 +31°C° 0 mm 3 m/s 694 mmHg 34%
20:00 +28°C° 0 mm 2 m/s 694 mmHg 42%
21:00 +28°C° 0 mm 2 m/s 694 mmHg 46%
22:00 +27°C° 0 mm 2 m/s 694 mmHg 50%
23:00 +26°C° 0 mm 3 m/s 694 mmHg 54%

15 Iulie, Miercuri

Timp Temperatura Precipitaţii Vânt Presiune Umiditate
00:00 +25°C° 0 mm 2 m/s 694 mmHg 53%
01:00 +25°C° 0 mm 1 m/s 694 mmHg 52%
02:00 +22°C° 0 mm 0 m/s 694 mmHg 51%
03:00 +23°C° 0 mm 1 m/s 694 mmHg 49%
04:00 +23°C° 0 mm 1 m/s 694 mmHg 47%
05:00 +23°C° 0 mm 1 m/s 694 mmHg 45%
06:00 +26°C° 0 mm 1 m/s 695 mmHg 38%
07:00 +29°C° 0 mm 2 m/s 696 mmHg 32%
08:00 +31°C° 0 mm 2 m/s 696 mmHg 25%
09:00 +34°C° 0 mm 2 m/s 697 mmHg 23%
10:00 +35°C° 0 mm 2 m/s 697 mmHg 21%
11:00 +37°C° 0 mm 3 m/s 697 mmHg 18%
12:00 +38°C° 0 mm 3 m/s 696 mmHg 17%
13:00 +40°C° 0 mm 4 m/s 696 mmHg 15%
14:00 +41°C° 0 mm 5 m/s 696 mmHg 13%
15:00 +40°C° 0 mm 6 m/s 696 mmHg 16%
16:00 +39°C° 0 mm 6 m/s 695 mmHg 18%
17:00 +39°C° 0 mm 7 m/s 695 mmHg 21%
18:00 +35°C° 0 mm 5 m/s 695 mmHg 28%
19:00 +32°C° 0 mm 4 m/s 695 mmHg 36%
20:00 +28°C° 0 mm 3 m/s 695 mmHg 43%
21:00 +28°C° 0 mm 3 m/s 695 mmHg 46%
22:00 +27°C° 0 mm 2 m/s 695 mmHg 49%
23:00 +26°C° 0 mm 2 m/s 695 mmHg 53%

16 Iulie, Joi

Timp Temperatura Precipitaţii Vânt Presiune Umiditate
00:00 +25°C° 0 mm 2 m/s 695 mmHg 54%
01:00 +25°C° 0 mm 2 m/s 695 mmHg 55%
02:00 +24°C° 0 mm 2 m/s 694 mmHg 57%
03:00 +24°C° 0 mm 2 m/s 694 mmHg 61%
04:00 +23°C° 0 mm 2 m/s 694 mmHg 64%
05:00 +23°C° 0 mm 2 m/s 694 mmHg 68%
06:00 +24°C° 0 mm 2 m/s 695 mmHg 59%
07:00 +26°C° 0 mm 2 m/s 695 mmHg 51%
08:00 +28°C° 0 mm 2 m/s 695 mmHg 43%
09:00 +30°C° 0 mm 2 m/s 695 mmHg 38%
10:00 +32°C° 0 mm 2 m/s 695 mmHg 33%
11:00 +34°C° 0 mm 3 m/s 695 mmHg 28%
12:00 +35°C° 0 mm 3 m/s 695 mmHg 25%
13:00 +37°C° 0 mm 4 m/s 694 mmHg 22%
14:00 +38°C° 0 mm 4 m/s 694 mmHg 20%
15:00 +37°C° 0 mm 5 m/s 694 mmHg 23%
16:00 +36°C° 0 mm 6 m/s 693 mmHg 27%
17:00 +35°C° 0 mm 7 m/s 693 mmHg 30%
18:00 +32°C° 0 mm 6 m/s 693 mmHg 38%
19:00 +29°C° 0 mm 5 m/s 693 mmHg 45%
20:00 +26°C° 0 mm 4 m/s 693 mmHg 52%
21:00 +25°C° 0 mm 4 m/s 693 mmHg 56%
22:00 +23°C° 0 mm 4 m/s 693 mmHg 60%
23:00 +22°C° 0 mm 3 m/s 693 mmHg 64%

17 Iulie, Vineri

Timp Temperatura Precipitaţii Vânt Presiune Umiditate
00:00 +22°C° 0 mm 3 m/s 693 mmHg 67%
01:00 +21°C° 0 mm 3 m/s 692 mmHg 69%
02:00 +21°C° 0 mm 3 m/s 692 mmHg 72%
03:00 +20°C° 0 mm 3 m/s 692 mmHg 70%
04:00 +20°C° 0 mm 2 m/s 692 mmHg 68%
05:00 +19°C° 0 mm 2 m/s 692 mmHg 66%
06:00 +21°C° 0 mm 2 m/s 693 mmHg 59%
07:00 +24°C° 0 mm 2 m/s 693 mmHg 53%
08:00 +26°C° 0 mm 2 m/s 693 mmHg 46%
09:00 +28°C° 0 mm 2 m/s 693 mmHg 40%
10:00 +30°C° 0 mm 2 m/s 693 mmHg 35%
11:00 +33°C° 0 mm 3 m/s 693 mmHg 29%
12:00 +34°C° 0 mm 3 m/s 693 mmHg 27%
13:00 +35°C° 0 mm 3 m/s 693 mmHg 25%
14:00 +36°C° 0 mm 3 m/s 692 mmHg 23%
15:00 +35°C° 0 mm 4 m/s 692 mmHg 26%
16:00 +34°C° 0 mm 5 m/s 692 mmHg 28%
17:00 +34°C° 0 mm 6 m/s 692 mmHg 31%
18:00 +30°C° 0 mm 5 m/s 692 mmHg 37%
19:00 +28°C° 0 mm 4 m/s 692 mmHg 42%
20:00 +25°C° 0 mm 4 m/s 692 mmHg 48%
21:00 +25°C° 0 mm 3 m/s 692 mmHg 46%
22:00 +24°C° 0 mm 3 m/s 692 mmHg 45%
23:00 +24°C° 0 mm 3 m/s 692 mmHg 44%
Arată mai mult